Погода в Пуэнт-Нуаре

Республика Конго     4°48′54″S   11°56′39″E
темп.,
°C
ветер,
м/с
пор.,
м/с
влажн.,
%
обл.,
%
осадки,
мм/ч
давл.,
гПа
погр.,
м
29 ноября, пн
пн2901:00+24юв019592 0.0 101020
04:00+23юв0097100 0.0 101013
07:00+25вюв019183 0.2 1012121
10:00+29ю237095 1.0 1012853
13:00+28юз447346 2.7 1009464
16:00+28юз447291 3.0 1008645
19:00+25юз2488100 5.4 1010172
22:00+25зсз1189100 0.8 101223
30 ноября, вт
вт3001:00+24с2391100 4.3 101192
04:00+24ю1395100 1.5 1010180
07:00+23ююв2393100 1.6 1012274
10:00+25юв2485100 0.1 1013431
13:00+25ю3478100 0.4 1011549
16:00+25юз1184100 0.0 1009173
19:00+24св008996 0.0 101014
22:00+23ссв119399 0.0 101112
1 декабря, ср
ср101:00+22ююв1194100 0.0 101012
04:00+23ююз119489 0.0 101016
07:00+24всв0089100 0.0 1012100
10:00+27св1174100 0.1 1013701
13:00+25юв1287100 0.4 1011191
16:00+24ююз2586100 0.1 1009308
19:00+24вюв1191100 0.1 101150
22:00+23св2494100 0.0 1012133
2 декабря, чт
чт201:00+23с009677 0.0 101015
04:00+23юв119492 0.0 101018
07:00+23всв1290100 0.0 1012100
10:00+26всв227633 0.0 1012436
13:00+31в125756 1.0 10091400
16:00+28ю236885 0.1 1007434
19:00+26ю2377100 0.2 1009179
22:00+25ююв118055 0.0 101047
3 декабря, пт
пт301:00+24вюв118691 0.0 100917
04:00+23в118886 0.0 100913
07:00+24в1284100 0.0 1011127
10:00+30ююв236096 0.0 10121128
13:00+30юз436087 0.0 10081023
16:00+28юз5671100 0.1 1007494
19:00+25юз2486100 0.1 1009205
22:00+25юз119198 0.0 101114